Manistique, MI

11:59 PM EST on February 26, 2017 (GMT -0500)
Schoolcraft County

Weather History for KISQ - June, 2013

Change the Weather History Date:

Wednesday, June 19, 2013

  Actual Average Record
Temperature  
Mean Temperature 49 °F -  
Max Temperature 62 °F 71 °F 83 °F (1987)
Min Temperature 36 °F 49 °F 34 °F (1958)
Degree Days  
Heating Degree Days 16    
Moisture  
Dew Point 43 °F    
Average Humidity 73    
Maximum Humidity 97    
Minimum Humidity 47    
Precipitation  
Precipitation 0.00 in - - ()
Sea Level Pressure  
Sea Level Pressure 30.13 in    
Wind  
Wind Speed 3 mph (South)    
Max Wind Speed 12 mph    
Max Gust Speed 17 mph    
Visibility 10 miles    
Events      
Averages and records for this station are not official NWS values.
T = Trace of Precipitation, MM = Missing Value Source: NWS Daily Summary

Daily Weather History Graph

Daily Weather History Graph

Search for Another Location

Airport or City:

Trip Planner

Search our weather history database for the weather conditions in past years. The results will help you decide how hot, cold, wet, or windy it might be!

Date:

Astronomy

Jun. 19, 2013 Rise Set
Actual Time 5:53 AM EDT 9:38 PM EDT
Civil Twilight 5:15 AM EDT 10:17 PM EDT
Nautical Twilight 4:23 AM EDT 11:09 PM EDT
Astronomical Twilight 3:10 AM EDT 12:21 AM EDT
Moon 5:21 PM EDT (6/19) 2:49 AM EDT (6/19)
Length of Visible Light 17h 02m
Length of Day
15h 44m
Waxing Gibbous, 80% of the Moon is Illuminated
Jun 19
Waxing Gibbous
Jun 23
Full
Jun 30
Last Quarter
Jul 8
New
Jul 15
First Quarter

Hourly Weather History & Observations

Time (EDT) Temp. Dew Point Humidity Pressure Visibility Wind Dir Wind Speed Gust Speed Precip Events Conditions
12:15 AM 43.7 °F 40.5 °F 88% 30.10 in 10.0 mi Calm Calm - N/A   Clear
12:35 AM 41.7 °F 39.7 °F 93% 30.10 in 10.0 mi Calm Calm - N/A   Clear
12:55 AM 40.8 °F 39.2 °F 94% 30.10 in 10.0 mi Calm Calm - N/A   Clear
1:15 AM 40.8 °F 38.5 °F 91% 30.10 in 10.0 mi Calm Calm - N/A   Clear
1:35 AM 40.5 °F 39.0 °F 95% 30.10 in 10.0 mi Calm Calm - N/A   Clear
1:55 AM 41.9 °F 39.4 °F 91% 30.11 in 10.0 mi Calm Calm - N/A   Clear
2:14 AM 39.2 °F 36.7 °F 91% 30.11 in 10.0 mi Calm Calm - N/A   Clear
2:35 AM 39.2 °F 37.4 °F 93% 30.11 in 10.0 mi Calm Calm - N/A   Clear
2:55 AM 39.2 °F 37.6 °F 94% 30.11 in 10.0 mi Calm Calm - N/A   Clear
3:15 AM 39.0 °F 37.6 °F 95% 30.12 in 10.0 mi Calm Calm - N/A   Clear
3:35 AM 38.7 °F 37.4 °F 95% 30.13 in 10.0 mi Calm Calm - N/A   Clear
3:55 AM 39.9 °F 38.7 °F 95% 30.13 in 10.0 mi Calm Calm - N/A   Clear
4:15 AM 38.1 °F 36.9 °F 95% 30.13 in 10.0 mi Calm Calm - N/A   Clear
4:35 AM 38.1 °F 37.0 °F 96% 30.14 in 10.0 mi Calm Calm - N/A   Clear
4:55 AM 39.2 °F 37.4 °F 93% 30.14 in 10.0 mi Calm Calm - N/A   Clear
5:15 AM 36.7 °F 35.1 °F 94% 30.14 in 10.0 mi Calm Calm - N/A   Clear
5:35 AM 37.4 °F 36.0 °F 95% 30.15 in 10.0 mi Calm Calm - N/A   Clear
5:54 AM 37.0 °F 35.2 °F 93% 30.16 in 10.0 mi Calm Calm - N/A   Clear
6:15 AM 37.4 °F 35.4 °F 93% 30.16 in 7.0 mi Calm Calm - N/A   Clear
6:35 AM 37.6 °F 36.0 °F 94% 30.16 in 10.0 mi Calm Calm - N/A   Clear
6:55 AM 39.4 °F 37.0 °F 91% 30.15 in 10.0 mi Calm Calm - N/A   Clear
7:15 AM 42.8 °F 41.9 °F 97% 30.15 in 10.0 mi Calm Calm - N/A   Clear
7:35 AM 48.0 °F 46.4 °F 94% 30.17 in 10.0 mi Calm Calm - N/A   Clear
7:55 AM 53.8 °F 49.6 °F 86% 30.16 in 10.0 mi Calm Calm - N/A   Clear
8:15 AM 56.5 °F 46.0 °F 68% 30.17 in 10.0 mi South 4.6 mph - N/A   Clear
8:35 AM 57.6 °F 44.1 °F 61% 30.17 in 10.0 mi South 5.8 mph - N/A   Clear
8:55 AM 58.1 °F 43.9 °F 59% 30.18 in 10.0 mi SSW 5.8 mph - N/A   Clear
9:15 AM 58.8 °F 44.4 °F 59% 30.18 in 10.0 mi South 4.6 mph - N/A   Clear
9:34 AM 57.7 °F 45.0 °F 62% 30.18 in 10.0 mi South 5.8 mph - N/A   Clear
9:55 AM 58.3 °F 45.9 °F 63% 30.18 in 10.0 mi South 5.8 mph - N/A   Clear
10:15 AM 59.2 °F 46.2 °F 62% 30.18 in 10.0 mi South 6.9 mph - N/A   Clear
10:34 AM 60.1 °F 46.6 °F 61% 30.18 in 10.0 mi South 6.9 mph - N/A   Clear
10:55 AM 59.9 °F 47.5 °F 64% 30.17 in 10.0 mi South 8.1 mph - N/A   Clear
11:15 AM 60.3 °F 47.3 °F 62% 30.17 in 10.0 mi South 10.4 mph - N/A   Clear
11:35 AM 60.4 °F 47.3 °F 62% 30.18 in 10.0 mi South 9.2 mph - N/A   Clear
11:55 AM 60.1 °F 47.3 °F 63% 30.17 in 10.0 mi South 10.4 mph - N/A   Clear
12:15 PM 61.2 °F 47.5 °F 61% 30.16 in 10.0 mi South 10.4 mph - N/A   Clear
12:35 PM 61.3 °F 47.1 °F 60% 30.16 in 10.0 mi South 9.2 mph - N/A   Clear
12:55 PM 61.2 °F 46.2 °F 58% 30.16 in 10.0 mi South 10.4 mph - N/A   Clear
1:15 PM 61.5 °F 46.6 °F 58% 30.16 in 10.0 mi South 9.2 mph - N/A   Clear
1:35 PM 61.5 °F 46.2 °F 57% 30.15 in 10.0 mi South 11.5 mph - N/A   Clear
1:54 PM 61.3 °F 46.0 °F 57% 30.15 in 10.0 mi South 10.4 mph - N/A   Clear
2:15 PM 61.5 °F 45.7 °F 56% 30.15 in 10.0 mi South 11.5 mph 17.3 mph N/A   Clear
2:35 PM 62.6 °F 45.7 °F 54% 30.14 in 10.0 mi South 9.2 mph - N/A   Clear
2:54 PM 61.0 °F 45.0 °F 56% 30.14 in 10.0 mi South 9.2 mph - N/A   Clear
3:15 PM 61.9 °F 44.1 °F 52% 30.13 in 10.0 mi South 10.4 mph 17.3 mph N/A   Clear
3:35 PM 62.1 °F 44.4 °F 52% 30.13 in 10.0 mi South 9.2 mph 16.1 mph N/A   Clear
3:55 PM 62.1 °F 46.0 °F 56% 30.13 in 10.0 mi South 8.1 mph 16.1 mph N/A   Clear
4:15 PM 61.9 °F 46.0 °F 56% 30.13 in 10.0 mi SSW 6.9 mph - N/A   Clear
4:35 PM 62.1 °F 43.9 °F 51% 30.12 in 10.0 mi SSW 10.4 mph - N/A   Clear
4:55 PM 62.1 °F 45.5 °F 55% 30.11 in 10.0 mi SSW 10.4 mph - N/A   Clear
5:15 PM 61.7 °F 43.3 °F 51% 30.11 in 10.0 mi SSW 10.4 mph 17.3 mph N/A   Clear
5:34 PM 62.4 °F 41.7 °F 47% 30.11 in 10.0 mi SSW 9.2 mph - N/A   Clear
5:55 PM 61.9 °F 41.5 °F 47% 30.11 in 10.0 mi SSW 10.4 mph - N/A   Clear
6:15 PM 62.6 °F 42.3 °F 47% 30.11 in 10.0 mi South 6.9 mph - N/A   Clear
6:34 PM 62.2 °F 42.4 °F 48% 30.10 in 10.0 mi South 8.1 mph - N/A   Clear
6:55 PM 60.8 °F 45.1 °F 56% 30.10 in 10.0 mi South 8.1 mph - N/A   Clear
7:15 PM 59.2 °F 45.7 °F 61% 30.09 in 10.0 mi South 6.9 mph - N/A   Clear
7:35 PM 57.9 °F 46.0 °F 65% 30.09 in 10.0 mi South 9.2 mph - N/A   Clear
7:55 PM 56.7 °F 45.7 °F 67% 30.09 in 10.0 mi South 8.1 mph - N/A   Clear
8:15 PM 56.3 °F 45.1 °F 66% 30.09 in 10.0 mi South 8.1 mph - N/A   Clear
8:35 PM 55.0 °F 45.9 °F 71% 30.09 in 10.0 mi South 6.9 mph - N/A   Clear
8:55 PM 54.0 °F 46.0 °F 75% 30.09 in 10.0 mi South 6.9 mph - N/A   Clear
9:14 PM 52.7 °F 46.2 °F 79% 30.08 in 10.0 mi South 4.6 mph - N/A   Clear
9:35 PM 51.6 °F 46.0 °F 81% 30.08 in 10.0 mi South 4.6 mph - N/A   Clear
9:55 PM 50.4 °F 45.9 °F 85% 30.08 in 10.0 mi South 4.6 mph - N/A   Clear
10:14 PM 50.9 °F 46.4 °F 85% 30.09 in 10.0 mi South 6.9 mph - N/A   Clear
10:35 PM 51.8 °F 46.4 °F 82% 30.09 in 10.0 mi South 6.9 mph - N/A   Clear
10:55 PM 51.6 °F 46.9 °F 84% 30.09 in 10.0 mi South 6.9 mph - N/A   Clear
11:15 PM 51.8 °F 46.9 °F 83% 30.09 in 10.0 mi South 6.9 mph - N/A   Clear
11:35 PM 52.0 °F 47.3 °F 84% 30.09 in 10.0 mi South 8.1 mph - N/A   Clear
11:55 PM 51.6 °F 47.3 °F 85% 30.10 in 10.0 mi South 8.1 mph - N/A   Clear